TimeHST,TemperatureF,Dew PointF,Humidity,Sea Level PressureIn,VisibilityMPH,Wind Direction,Wind SpeedMPH,Gust SpeedMPH,PrecipitationIn,Events,Conditions,WindDirDegrees,DateUTC
12:48 AM,73.4,62.6,69,30.11,10.0,East,8.1,-,N/A,,Overcast,80,2013-02-02 10:48:00
12:57 AM,72.0,62.1,71,30.09,10.0,East,9.2,16.1,N/A,,Overcast,90,2013-02-02 10:57:00
1:07 AM,71.6,62.6,73,30.11,10.0,East,9.2,-,N/A,,Mostly Cloudy,90,2013-02-02 11:07:00
1:57 AM,71.6,62.1,72,30.08,10.0,East,9.2,19.6,N/A,,Mostly Cloudy,90,2013-02-02 11:57:00
2:57 AM,70.9,61.0,71,30.07,10.0,East,9.2,17.3,N/A,,Overcast,80,2013-02-02 12:57:00
3:57 AM,70.3,61.0,72,30.07,10.0,East,6.9,-,N/A,,Overcast,80,2013-02-02 13:57:00
4:57 AM,70.3,61.0,72,30.08,10.0,East,9.2,16.1,N/A,,Scattered Clouds,80,2013-02-02 14:57:00
5:57 AM,70.9,60.1,69,30.09,10.0,ENE,10.4,17.3,N/A,,Mostly Cloudy,70,2013-02-02 15:57:00
6:57 AM,72.1,60.1,66,30.12,10.0,East,12.7,21.9,N/A,,Overcast,80,2013-02-02 16:57:00
7:13 AM,71.6,60.8,69,30.13,10.0,ENE,10.4,19.6,N/A,,Overcast,70,2013-02-02 17:13:00
7:35 AM,71.6,60.8,69,30.14,6.2,ENE,13.8,23.0,N/A,,Overcast,70,2013-02-02 17:35:00
7:57 AM,73.2,61.0,65,30.14,10.0,ENE,11.5,20.7,N/A,,Overcast,70,2013-02-02 17:57:00
8:57 AM,73.2,61.0,65,30.16,10.0,East,8.1,19.6,N/A,,Overcast,90,2013-02-02 18:57:00
9:57 AM,75.2,60.1,59,30.17,10.0,East,9.2,18.4,N/A,,Overcast,80,2013-02-02 19:57:00
10:57 AM,77.0,59.0,54,30.16,10.0,ESE,10.4,18.4,N/A,,Scattered Clouds,110,2013-02-02 20:57:00
11:57 AM,77.0,59.0,54,30.15,10.0,East,10.4,19.6,N/A,,Scattered Clouds,90,2013-02-02 21:57:00
12:57 PM,78.8,57.9,49,30.13,10.0,East,10.4,17.3,N/A,,Scattered Clouds,90,2013-02-02 22:57:00
1:57 PM,78.8,60.1,53,30.11,10.0,East,9.2,16.1,N/A,,Overcast,80,2013-02-02 23:57:00
2:57 PM,78.8,61.0,54,30.10,10.0,ENE,10.4,18.4,N/A,,Scattered Clouds,60,2013-02-03 00:57:00
3:57 PM,77.0,59.0,54,30.10,10.0,ENE,10.4,-,N/A,,Scattered Clouds,70,2013-02-03 01:57:00
4:57 PM,75.2,60.1,59,30.11,10.0,East,10.4,18.4,N/A,,Scattered Clouds,80,2013-02-03 02:57:00
5:57 PM,75.2,60.1,59,30.12,10.0,ENE,12.7,17.3,N/A,,Scattered Clouds,70,2013-02-03 03:57:00
6:57 PM,73.4,57.9,58,30.13,10.0,ENE,6.9,-,N/A,,Scattered Clouds,70,2013-02-03 04:57:00
7:57 PM,73.4,59.0,61,30.15,10.0,Variable,6.9,-,N/A,,Scattered Clouds,0,2013-02-03 05:57:00
8:57 PM,71.6,59.0,64,30.16,10.0,East,5.8,-,N/A,,Scattered Clouds,100,2013-02-03 06:57:00
9:57 PM,71.6,57.9,62,30.16,10.0,East,4.6,-,N/A,,Scattered Clouds,100,2013-02-03 07:57:00
10:57 PM,71.6,57.9,62,30.16,10.0,East,5.8,-,N/A,,Scattered Clouds,80,2013-02-03 08:57:00
11:57 PM,69.8,59.0,68,30.15,10.0,East,5.8,-,N/A,,Scattered Clouds,90,2013-02-03 09:57:00